Location: Kott?ru
(16.6209°N, 80.6208°E)
Time: 16:30:40
(UTC+00:00)

Cosmos 1844 - Pass Details

Date: 18 September 2020
Orbit: 824 x 866 km, 70.9° (Epoch: 20 October)

Event Time Altitude Azimuth Distance (km) Brightness Sun altitude
Rises 14:11:46 0° 198° (SSW) 3,430 7.0 -23.5°
Reaches altitude 10° 14:14:14 10° 199° (SSW) 2,491 6.2 -24.1°
Maximum altitude 14:19:58 83° 287° (WNW) 865 3.7 -25.4°
Drops below altitude 10° 14:25:40 10° 15° (NNE) 2,471 6.1 -26.8°
Sets 14:28:06 0° 16° (NNE) 3,400 6.8 -27.3°
